Weather History for Eureka, NV

Change the Weather History Date:

Thursday, September 27, 2012

  Actual Average Record
Temperature  
Mean Temperature 60 °F 54 °F  
Max Temperature 77 °F 73 °F 90 °F (2010)
Min Temperature 42 °F 34 °F 18 °F (1999)
Degree Days  
Heating Degree Days 5 11  
Month to date heating degree days 72 180  
Since 1 July heating degree days 72 227  
Cooling Degree Days 0 0  
Month to date cooling degree days 21 9  
Year to date cooling degree days 529 286  
Growing Degree Days 9 (Base 50)    
Moisture  
Dew Point 37 °F    
Average Humidity 51    
Maximum Humidity 82    
Minimum Humidity 19    
Precipitation  
Precipitation 0.00 in 0.02 in 0.57 in (1983)
Month to date precipitation 0.81 0.52  
Year to date precipitation 5.47 6.81  
Sea Level Pressure  
Sea Level Pressure 30.02 in    
Wind  
Wind Speed 4 mph (South)    
Max Wind Speed 12 mph    
Max Gust Speed 13 mph    
T = Trace of Precipitation, MM = Missing Value Source: NWS Daily Summary

Daily Weather History Graph

Daily Weather History Graph

Search for Another Location

Airport:

Trip Planner

Search our weather history database for the weather conditions in past years. The results will help you decide how hot, cold, wet, or windy it might be!

Date:

Astronomy

Sep. 27, 2012 Rise Set
Actual Time 6:36 AM PDT 6:32 PM PDT
Civil Twilight 6:10 AM PDT 6:58 PM PDT
Nautical Twilight 5:38 AM PDT 7:30 PM PDT
Astronomical Twilight 5:07 AM PDT 8:01 PM PDT
Moon 5:05 PM PDT (9/27) 4:10 AM PDT (9/27)
Length of Visible Light 12h 48m
Length of Day
11h 55m
Waxing Gibbous, 94% of the Moon is Illuminated
Sep 27
Waxing Gibbous
Sep 29
Full
Oct 8
Last Quarter
Oct 15
New
Oct 21
First Quarter

Hourly Weather History & Observations

Time (PDT) Temp. Windchill Dew Point Humidity Pressure Visibility Wind Dir Wind Speed Gust Speed Precip Events Conditions
12:53 AM 48.0 °F - 39.9 °F 74% 30.01 in - South 8.1 mph - N/A   Unknown
1:53 AM 46.9 °F - 39.9 °F 77% 30.02 in - SSW 8.1 mph - N/A   Unknown
2:53 AM 46.0 °F 41.4 °F 39.0 °F 76% 30.02 in - SSW 9.2 mph - N/A   Unknown
3:53 AM 46.0 °F 43.1 °F 39.0 °F 76% 30.02 in - South 5.8 mph - N/A   Unknown
4:53 AM 44.1 °F 42.5 °F 37.9 °F 79% 30.04 in - South 3.5 mph - N/A   Unknown
5:53 AM 45.0 °F 41.2 °F 37.9 °F 76% 30.04 in - SSW 6.9 mph - N/A   Unknown
6:53 AM 43.0 °F 38.2 °F 37.9 °F 82% 30.09 in - SSW 8.1 mph - N/A   Unknown
7:53 AM 48.9 °F - 39.0 °F 69% 30.08 in - SSW 10.4 mph - N/A   Unknown
8:53 AM 57.9 °F - 41.0 °F 53% 30.08 in - Calm Calm - N/A   Unknown
9:53 AM 64.0 °F - 42.1 °F 45% 30.07 in - North 4.6 mph - N/A   Unknown
10:53 AM 68.0 °F - 41.0 °F 37% 30.05 in - East 3.5 mph - N/A   Unknown
11:53 AM 71.1 °F - 37.0 °F 29% 30.04 in - Calm Calm - N/A   Unknown
12:53 PM 75.0 °F - 30.9 °F 20% 30.01 in - North - - N/A   Unknown
1:53 PM 73.9 °F - 33.1 °F 22% 30.00 in - Variable 4.6 mph - N/A   Unknown
2:53 PM 75.9 °F - 34.0 °F 22% 29.99 in - Variable 3.5 mph - N/A   Unknown
3:53 PM 73.9 °F - 34.0 °F 23% 29.98 in - Calm Calm - N/A   Unknown
4:53 PM 75.9 °F - 33.1 °F 21% 29.96 in - Calm Calm - N/A   Unknown
5:53 PM 73.0 °F - 37.9 °F 28% 29.96 in - East 4.6 mph - N/A   Unknown
6:53 PM 64.9 °F - 37.0 °F 36% 30.00 in - SE 8.1 mph - N/A   Unknown
7:53 PM 57.9 °F - 37.0 °F 46% 30.01 in - West 4.6 mph - N/A   Unknown
8:53 PM 59.0 °F - 37.0 °F 44% 29.99 in - SSW 3.5 mph - N/A   Unknown
9:53 PM 53.1 °F - 37.0 °F 55% 30.00 in - Calm Calm - N/A   Unknown
10:53 PM 55.9 °F - 36.0 °F 47% 29.98 in - SSE 3.5 mph - N/A   Unknown
11:53 PM 50.0 °F - 37.0 °F 61% 29.99 in - Calm Calm - N/A   Unknown